Regional Weather Roundup
Issued by NWS State College, PA

Home | Current Version | Previous Version | Text Only | Print | Product List | Glossary On
Versions: 1 2 3 4 5 6 7 8 9 10 11 12 13 14 15 16 17 18 19 20 21 22 23 24 25 26 27 28 29 30 31 32 33 34 35 36 37 38 39 40 41 42 43 44 45 46 47 48 49 50
146
ASUS41 KCTP 300103
RWRCTP

REGIONAL WEATHER ROUNDUP
NATIONAL WEATHER SERVICE STATE COLLEGE PA
900 PM EDT THU SEP 29 2016

Note: "fair" indicates few or no clouds below 12,000 feet with no
significant weather and/or obstructions to visibility.

* = STATION THAT DOES NOT REPORT PRECIPITATION /E.G. RAIN...SNOW...ETC/
    THUNDER OR FOG.

PAZ002>004-007>009-013>016-020>023-029>032-300200-
WESTERN PENNSYLVANIA

CITY           SKY/WX    TMP DP  RH WIND       PRES   REMARKS
ERIE           CLOUDY    63  58  83 E8        30.22R
MEADVILLE      CLOUDY    60  54  80 E9G20     30.21R
FRANKLIN*        N/A     57  52  82 E12G20    30.22R
NEW CASTLE     CLOUDY    61  58  90 E8        30.18R
BEAVER COUNTY  RAIN      59  57  94 E8        30.16R
BUTLER*        CLOUDY    57  54  88 E16G26    30.19R
PITTSBURGH INT RAIN      60  60 100 E13G22    30.13R
PITTSBURGH     HVY RAIN  60  57  89 E10       30.14R FOG
INDIANA*       CLOUDY    59  55  88 E10G18    30.21R
LATROBE        MOCLDY    61  59  94 E12       30.16R
WASHINGTON CO* CLOUDY    61  57  88 NE10      30.12S
$$

PAZ004>006-010>012-017>019-024>028-033>037-041-042-045-046-049>053-300200-
CENTRAL PENNSYLVANIA

CITY           SKY/WX    TMP DP  RH WIND       PRES   REMARKS
BRADFORD       CLOUDY    56  56 100 E14G21    30.28R
DUBOIS         CLOUDY    56  52  86 E14G23    30.24R
CLEARFIELD     CLOUDY    56  56 100 E13G21    30.27R FOG
JOHNSTOWN      CLOUDY    55  55 100 E13G23    30.18R
ALTOONA        CLOUDY    56  56 100 E16G22    30.24R
STATE COLLEGE  CLOUDY    55  54  94 E7        30.29R
WILLIAMSPORT   CLOUDY    59  55  87 CALM      30.30S
SELINSGROVE    CLOUDY    60  55  83 NE3       30.30S
FT INDIANTOWN  CLOUDY    59  54  84 NE15G21   30.27F
CAPITAL CITY   CLOUDY    60  56  86 E9        30.26R
HARRISBURG     CLOUDY    59  58  96 E12       30.25S FOG
YORK           CLOUDY    59  59 100 E10       30.24R FOG
$$

PAZ038>040-043-044-047-048-054-055-060>062-067>071-300200-
EASTERN PENNSYLVANIA

CITY           SKY/WX    TMP DP  RH WIND       PRES   REMARKS
SCRANTON       CLOUDY    59  50  72 NE7       30.32S
MOUNT POCONO   LGT RAIN  52  47  83 E15G23    30.35R
ALLENTOWN      LGT RAIN  59  54  83 E13       30.32R
QUAKERTOWN*    CLOUDY    57  54  88 E8G18     30.32S
READING        LGT RAIN  59  54  83 VRB6G17   30.26S
LANCASTER      RAIN      60  59  96 E10G18    30.27R
COATESVILLE    LGT RAIN  59  57  94 E18G40    30.26R
POTTSTOWN      LGT RAIN  57  56  96 E9        30.30R
BLUE BELL      CLOUDY    55  55 100 E13       30.30R
DOYLESTOWN     LGT RAIN  59  57  93 VRB6      30.31S
WILLOW GROVE   NOT AVBL
NORTH PHILA    LGT RAIN  61  59  93 E13       30.32R
PHILADELPHIA   RAIN      61  58  90 E14G25    30.28S FOG
$$




USA.gov is the U.S. government's official web portal to all federal, state and local government web resources and services.